Weather in Oktyabrskoye

Russia / Republic of Bashkortostan     53°35′54″N   55°37′17″E
temp.,
°C
wind,
m/s
gust,
m/s
humid.,
%
clouds,
%
prec.,
mm/h
press.,
hPa
HPBL,
m
28 february, sun
sun2823:00−6sse599699 1.8 1001319
02:00−5sse4896100 0.9 999258
05:00−5sse3597100 1.5 999120
08:00−2sse3498100 1.0 998162
11:00−1s3498100 1.7 999248
14:000ssw1310099 0.7 1000247
17:00−4nw699399 1.1 1002258
20:00−9nw6109284 0.0 1004249
1 march, mon
mon123:00−11nw489487 0.1 1008213
02:00−12wnw349594 0.4 101089
05:00−14wnw239594 0.5 101261
08:00−15nw239595 0.1 101447
11:00−13nw249396 0.2 1016247
14:00−11nnw238999 0.1 1017377
17:00−11n249299 0.2 1018285
20:00−15nnw2396100 0.2 101959
2 march, tue
tue223:00−19nw239692 0.2 102021
02:00−20w229871 0.0 102020
05:00−22sw229660 0.0 102020
08:00−23ssw33962 0.0 101923
11:00−19s579421 0.0 1017246
14:00−16s7119387 0.0 1014391
17:00−15s8149293 0.0 1013436
20:00−14s81491100 0.1 1011531
3 march, wed
wed323:00−12s81491100 0.3 1009534
02:00−10s81493100 0.2 1006536
05:00−5s71295100 0.5 1003537
08:00−4ssw51195100 0.6 1001533
11:00−3ssw5993100 0.8 1000647
14:00−1sw4689100 0.2 999653
17:00−2w4695100 0.5 999470
20:00−4wnw61190100 0.2 1000528
4 march, thu
thu423:00−7wnw51191100 0.3 1003320
02:00−8wnw5109199 0.0 1004275
05:00−8wnw599297 0.1 1006267
08:00−10nw5109289 0.1 1007233
11:00−10nw5109047 0.1 1009374
14:00−8nw588736 0.0 1011715
17:00−8wnw489067 0.1 1012448
20:00−11w599158 0.0 1014181